Change the Weather History Date:

Tuesday, March 19, 2013

  Actual Average Record
Temperature  
Mean Temperature 11 °F 33 °F  
Max Temperature 22 °F 44 °F 67 °F (2001)
Min Temperature -1 °F 22 °F -11 °F (1897)
Degree Days  
Heating Degree Days 54 32  
Month to date heating degree days 776 689  
Since 1 July heating degree days 6983 7059  
Cooling Degree Days 0 0  
Month to date cooling degree days 0 0  
Year to date cooling degree days 0 0  
Moisture  
Dew Point 2 °F    
Average Humidity 70    
Maximum Humidity 88    
Minimum Humidity 52    
Precipitation  
Precipitation 0.00 in 0.02 in 0.12 in (1932)
Month to date precipitation 0.80 0.23  
Year to date precipitation 1.46 0.86  
Snow  
Snow 0.00 in 0.10 in 1.80 in (1989)
Month to date snowfall 10.6 3.1  
Since 1 July snowfall 47.9 30.1  
Snow Depth 2.00 in    
Sea Level Pressure  
Sea Level Pressure 30.40 in    
Wind  
Wind Speed 9 mph (NNW)    
Max Wind Speed 21 mph    
Max Gust Speed 24 mph    
Visibility 10 miles    
Events      
T = Trace of Precipitation, MM = Missing Value Source: NWS Daily Summary

Daily Weather History Graph

Daily Weather History Graph

Search for Another Location

Airport or City:

Trip Planner

Search our weather history database for the weather conditions in past years. The results will help you decide how hot, cold, wet, or windy it might be!

Date:

Astronomy

Mar. 19, 2013 Rise Set
Actual Time 7:10 AM MDT 7:18 PM MDT
Civil Twilight 6:39 AM MDT 7:49 PM MDT
Nautical Twilight 6:03 AM MDT 8:26 PM MDT
Astronomical Twilight 5:25 AM MDT 9:03 PM MDT
Moon 11:38 AM MDT (3/19) 2:32 AM MDT (3/19)
Length of Visible Light 13h 09m
Length of Day
12h 07m
Waxing Crescent, 50% of the Moon is Illuminated
Mar 19
Waxing Crescent
Mar 27
Full
Apr 2
Last Quarter
Apr 10
New
Apr 18
First Quarter

Hourly Weather History & Observations

Time (MDT) Temp. Windchill Dew Point Humidity Pressure Visibility Wind Dir Wind Speed Gust Speed Precip Events Conditions
12:53 AM 7.0 °F -6.6 °F 3.9 °F 87% 30.12 in 10.0 mi NW 9.2 mph - N/A   Clear
1:53 AM 9.0 °F -7.9 °F 5.0 °F 84% 30.15 in 10.0 mi NW 15.0 mph - N/A   Clear
2:53 AM 5.0 °F -10.0 °F -0.0 °F 80% 30.20 in 10.0 mi NW 10.4 mph - N/A   Clear
3:53 AM 5.0 °F -12.3 °F -0.0 °F 80% 30.25 in 10.0 mi WNW 13.8 mph - N/A   Clear
4:53 AM 3.9 °F -11.3 °F -2.0 °F 76% 30.28 in 10.0 mi NNW 10.4 mph - N/A   Clear
5:53 AM 1.0 °F -15.8 °F -4.0 °F 79% 30.32 in 10.0 mi NNW 11.5 mph - N/A   Clear
6:53 AM -0.0 °F -14.2 °F -5.1 °F 79% 30.36 in 10.0 mi NNW 8.1 mph - N/A   Clear
7:53 AM -0.9 °F -16.4 °F -6.0 °F 79% 30.40 in 10.0 mi NW 9.2 mph - N/A   Clear
8:53 AM 3.0 °F -13.3 °F -2.9 °F 76% 30.42 in 10.0 mi NW 11.5 mph - N/A   Clear
9:53 AM 7.0 °F -3.3 °F -0.9 °F 70% 30.45 in 10.0 mi WNW 5.8 mph - N/A   Clear
10:53 AM 10.0 °F 1.8 °F -0.0 °F 64% 30.48 in 10.0 mi WNW 4.6 mph - N/A   Clear
11:53 AM 10.9 °F - 1.9 °F 67% 30.49 in 10.0 mi Calm Calm - N/A   Partly Cloudy
12:53 PM 16.0 °F 10.4 °F 1.9 °F 54% 30.48 in 10.0 mi West 3.5 mph - N/A   Clear
1:53 PM 17.1 °F - 3.9 °F 56% 30.48 in 10.0 mi Calm Calm - N/A   Clear
2:53 PM 18.0 °F 12.7 °F 5.0 °F 57% 30.48 in 10.0 mi Variable 3.5 mph - N/A   Clear
3:53 PM 19.9 °F 13.4 °F 6.1 °F 55% 30.47 in 10.0 mi Variable 4.6 mph - N/A   Clear
4:53 PM 21.9 °F 15.7 °F 7.0 °F 53% 30.46 in 10.0 mi SSE 4.6 mph - N/A   Clear
5:53 PM 21.9 °F 12.5 °F 9.0 °F 58% 30.47 in 10.0 mi SE 8.1 mph - N/A   Clear
6:53 PM 19.0 °F 7.5 °F 10.0 °F 68% 30.46 in 10.0 mi ESE 10.4 mph - N/A   Clear
7:53 PM 12.9 °F -0.9 °F 6.1 °F 74% 30.46 in 10.0 mi ESE 11.5 mph - N/A   Clear
8:53 PM 10.0 °F -4.5 °F 3.9 °F 76% 30.45 in 10.0 mi East 11.5 mph - N/A   Clear
9:53 PM 8.1 °F -6.2 °F 1.9 °F 76% 30.45 in 10.0 mi East 10.4 mph - N/A   Clear
10:53 PM 8.1 °F -6.2 °F 1.9 °F 76% 30.43 in 10.0 mi East 10.4 mph - N/A   Clear
11:53 PM 9.0 °F -7.3 °F 3.0 °F 77% 30.41 in 10.0 mi East 13.8 mph - N/A   Clear